Find Thor II

NORAD ID: 24808 Int'l Des: 1997-025 Owner: TNOR Country: N operational
HEOCIRCULAR

当前视图

正在加载3D地球...

About Thor II

Thor II (NORAD 24808) is a satellite launched May 20, 1997 by TNOR of N. It operates in HEO, CIRCULAR orbit with a mass of 924.00 kg.

即将过境

Passes for default location (London). Set your location on the main map for personalized predictions.

高度历史

Loading altitude history...

两行轨道根数

1 24808U 97025A 26195.40853911 -.00000251 00000-0 00000-0 0 9998
2 24808 12.0731 32.4675 0003252 329.6936 37.2797 0.98973599 46357
Epoch: Jul 14, 2026 • Age: 10 hours

当前状态

高度 36167.3 km
远地点 / 近地点 N/A
速度 3.06 km/s
星下点 6.28°N, 41.19°W
发射日期 May 20, 1997
运行时间 29.1 years
类型 other

技术详情

分类 Payload
质量 924.00 kg
干质量 750.00 kg
总质量 1467.00 kg
长度 7.80 m
直径 2.20 m
跨度 7.80 m
形状 Cyl
制造商 HSES
平台类型 HS-376HP
阶段状态 In Orbit
所有者/国家 TNOR/N

Most Searched